| time (UTC) | temp F | wind direction | speed knots | gust knots | rain 1hr in | rain 24hr in | rain mn in | humidity % | barometer mb |
| 20260902235037 | 70 | 127 | 3.5 | 8.7 | 0.00 | 0.00 | 0.00 | 71 | 1006.7 |
| 20260902234037 | 70 | 46 | 6.1 | 9.6 | 0.00 | 0.00 | 0.00 | 72 | 1006.7 |
| 20260902233037 | 70 | 80 | 3.5 | 8.7 | 0.00 | 0.00 | 0.00 | 72 | 1007.0 |
| 20260902232037 | 69 | 53 | 3.5 | 8.7 | 0.00 | 0.00 | 0.00 | 74 | 1007.4 |
| 20260902231037 | 68 | 76 | 7.0 | 8.7 | 0.00 | 0.00 | 0.00 | 75 | 1007.4 |
| 20260902230037 | 68 | 56 | 2.6 | 4.3 | 0.00 | 0.00 | 0.00 | 74 | 1007.3 |
| 20260902225037 | 68 | 101 | 0.9 | 4.3 | 0.00 | 0.00 | 0.00 | 74 | 1007.4 |
| 20260902224037 | 69 | 83 | 1.7 | 3.5 | 0.00 | 0.00 | 0.00 | 73 | 1007.3 |
| 20260902223037 | 69 | 64 | 4.3 | 6.1 | 0.00 | 0.00 | 0.00 | 73 | 1007.5 |
| 20260902222037 | 69 | 40 | 2.6 | 4.3 | 0.00 | 0.00 | 0.00 | 73 | 1007.2 |
| 20260902221037 | 69 | 78 | 3.5 | 5.2 | 0.00 | 0.00 | 0.00 | 72 | 1007.5 |
| 20260902220037 | 70 | 81 | 1.7 | 4.3 | 0.00 | 0.00 | 0.00 | 71 | 1007.4 |
| 20260902215037 | 70 | 81 | 1.7 | 3.5 | 0.00 | 0.00 | 0.00 | 70 | 1007.4 |
| 20260902214037 | 71 | 71 | 1.7 | 2.6 | 0.00 | 0.00 | 0.00 | 70 | 1007.3 |
| 20260902213037 | 71 | 38 | 2.6 | 4.3 | 0.00 | 0.00 | 0.00 | 68 | 1007.3 |
| 20260902212037 | 70 | 32 | 3.5 | 3.5 | 0.00 | 0.00 | 0.00 | 70 | 1007.1 |
| 20260902211037 | 71 | 61 | 1.7 | 3.5 | 0.00 | 0.00 | 0.00 | 69 | 1007.3 |
| 20260902210037 | 71 | 62 | 1.7 | 2.6 | 0.00 | 0.00 | 0.00 | 69 | 1007.2 |
| 20260902205036 | 70 | 59 | 1.7 | 3.5 | 0.00 | 0.02 | 0.00 | 70 | 1007.2 |
| 20260902204037 | 70 | 84 | 1.7 | 2.6 | 0.00 | 0.02 | 0.00 | 70 | 1007.2 |
| 20260902203037 | 71 | 69 | 1.7 | 3.5 | 0.00 | 0.02 | 0.00 | 69 | 1007.2 |
| 20260902202037 | 71 | 72 | 2.6 | 3.5 | 0.00 | 0.02 | 0.00 | 69 | 1007.3 |
| 20260902201037 | 71 | 60 | 2.6 | 3.5 | 0.00 | 0.02 | 0.00 | 68 | 1007.1 |
| 20260902200037 | 71 | 73 | 1.7 | 3.5 | 0.00 | 0.02 | 0.00 | 68 | 1007.2 |
| 20260902195036 | 71 | 71 | 1.7 | 5.2 | 0.00 | 0.02 | 0.00 | 68 | 1007.1 |
| 20260902194036 | 71 | 20 | 1.7 | 3.5 | 0.00 | 0.02 | 0.00 | 67 | 1007.2 |
| 20260902193037 | 71 | 65 | 0.9 | 2.6 | 0.00 | 0.02 | 0.00 | 67 | 1007.2 |
| 20260902192037 | 72 | 67 | 1.7 | 3.5 | 0.00 | 0.02 | 0.00 | 66 | 1007.2 |
| 20260902191037 | 72 | 32 | 2.6 | 3.5 | 0.00 | 0.02 | 0.00 | 66 | 1007.3 |
| 20260902190037 | 72 | 56 | 2.6 | 3.5 | 0.00 | 0.02 | 0.00 | 65 | 1007.1 |
| 20260902185037 | 73 | 34 | 0.9 | 4.3 | 0.00 | 0.02 | 0.00 | 64 | 1007.1 |
| 20260902184037 | 73 | 51 | 0.9 | 5.2 | 0.00 | 0.02 | 0.00 | 63 | 1007.2 |
| 20260902183037 | 73 | 69 | 1.7 | 3.5 | 0.00 | 0.02 | 0.00 | 62 | 1007.1 |
| 20260902182037 | 74 | 52 | 1.7 | 3.5 | 0.00 | 0.02 | 0.00 | 62 | 1007.0 |
| 20260902181037 | 74 | 59 | 1.7 | 5.2 | 0.00 | 0.02 | 0.00 | 62 | 1007.1 |
| 20260902180037 | 75 | 12 | 4.3 | 4.3 | 0.00 | 0.02 | 0.00 | 61 | 1007.0 |
| 20260902175036 | 75 | 41 | 3.5 | 6.1 | 0.00 | 0.02 | 0.00 | 61 | 1006.9 |
| 20260902174036 | 76 | 70 | 1.7 | 7.0 | 0.00 | 0.02 | 0.00 | 60 | 1006.9 |
| 20260902173037 | 78 | 61 | 3.5 | 4.3 | 0.00 | 0.02 | 0.00 | 58 | 1006.7 |
| 20260902172037 | 79 | 19 | 5.2 | 6.1 | 0.00 | 0.02 | 0.00 | 55 | 1006.5 |
| 20260902171036 | 80 | 20 | 1.7 | 3.5 | 0.00 | 0.02 | 0.00 | 52 | 1006.6 |
| 20260902170036 | 81 | 44 | 0.9 | 3.5 | 0.00 | 0.02 | 0.00 | 50 | 1006.2 |
| 20260902165037 | 82 | 13 | 0.9 | 2.6 | 0.00 | 0.02 | 0.00 | 49 | 1006.1 |
| 20260902164037 | 82 | 82 | 2.6 | 3.5 | 0.00 | 0.02 | 0.00 | 48 | 1006.0 |
| 20260902163037 | 83 | 53 | 2.6 | 3.5 | 0.00 | 0.02 | 0.00 | 47 | 1005.8 |
| 20260902162037 | 83 | 355 | 3.5 | 4.3 | 0.00 | 0.02 | 0.00 | 48 | 1005.8 |
| 20260902161037 | 84 | 45 | 2.6 | 3.5 | 0.00 | 0.02 | 0.00 | 46 | 1005.8 |
| 20260902160036 | 85 | 29 | 3.5 | 3.5 | 0.00 | 0.02 | 0.00 | 42 | 1005.8 |
| 20260902155037 | 85 | 276 | 0.0 | 1.7 | 0.00 | 0.02 | 0.00 | 42 | 1005.8 |
| 20260902154037 | 85 | 64 | 2.6 | 3.5 | 0.00 | 0.02 | 0.00 | 42 | 1005.8 |
| 20260902153037 | 85 | 17 | 1.7 | 2.6 | 0.00 | 0.02 | 0.00 | 42 | 1005.8 |
| 20260902152036 | 85 | 329 | 0.0 | 1.7 | 0.00 | 0.02 | 0.00 | 42 | 1005.9 |
| 20260902151036 | 85 | 32 | 0.0 | 0.9 | 0.00 | 0.02 | 0.00 | 42 | 1006.0 |
| 20260902150037 | 86 | 338 | 0.9 | 1.7 | 0.00 | 0.02 | 0.00 | 42 | 1006.1 |
| 20260902145037 | 87 | 14 | 1.7 | 3.5 | 0.00 | 0.02 | 0.00 | 41 | 1006.1 |
| 20260902144805 | 87 | 325 | 1.7 | 4.3 | 0.00 | 0.02 | 0.00 | 40 | 1006.1 |
| 20260902143806 | 87 | 347 | 1.7 | 5.2 | 0.00 | 0.02 | 0.00 | 40 | 1006.1 |
| 20260902142805 | 87 | 59 | 0.9 | 2.6 | 0.00 | 0.02 | 0.00 | 40 | 1006.3 |
| 20260902141805 | 87 | 312 | 1.7 | 3.5 | 0.00 | 0.02 | 0.00 | 40 | 1006.0 |
| 20260902140805 | 87 | 296 | 1.7 | 5.2 | 0.00 | 0.02 | 0.00 | 40 | 1006.3 |
| 20260902135805 | 88 | 306 | 2.6 | 2.6 | 0.00 | 0.02 | 0.00 | 40 | 1006.4 |
| 20260902134805 | 87 | 28 | 1.7 | 3.5 | 0.00 | 0.02 | 0.00 | 40 | 1006.4 |
| 20260902133805 | 88 | 204 | 0.0 | 2.6 | 0.00 | 0.02 | 0.00 | 39 | 1006.7 |
| 20260902132805 | 88 | 310 | 0.0 | 2.6 | 0.00 | 0.02 | 0.00 | 40 | 1006.4 |
| 20260902131805 | 87 | 27 | 2.6 | 5.2 | 0.00 | 0.02 | 0.00 | 40 | 1006.9 |
| 20260902130805 | 89 | 334 | 2.6 | 4.3 | 0.00 | 0.02 | 0.00 | 38 | 1006.7 |
| 20260902125805 | 90 | 290 | 0.9 | 2.6 | 0.00 | 0.02 | 0.00 | 38 | 1006.8 |
| 20260902124806 | 90 | 255 | 0.9 | 2.6 | 0.00 | 0.02 | 0.00 | 38 | 1007.0 |
| 20260902123805 | 89 | 255 | 0.9 | 1.7 | 0.00 | 0.02 | 0.00 | 39 | 1007.1 |
| 20260902122805 | 88 | 303 | 2.6 | 5.2 | 0.00 | 0.02 | 0.00 | 40 | 1007.3 |
| 20260902121805 | 88 | 272 | 0.9 | 2.6 | 0.00 | 0.02 | 0.00 | 41 | 1007.3 |
| 20260902120805 | 87 | 284 | 1.7 | 5.2 | 0.00 | 0.02 | 0.00 | 40 | 1007.4 |
| 20260902115805 | 87 | 316 | 1.7 | 2.6 | 0.00 | 0.02 | 0.00 | 42 | 1007.5 |
| 20260902114805 | 87 | 38 | 3.5 | 6.1 | 0.00 | 0.02 | 0.00 | 42 | 1007.9 |
| 20260902113805 | 87 | 267 | 1.7 | 4.3 | 0.00 | 0.02 | 0.00 | 42 | 1007.8 |
| 20260902112805 | 87 | 308 | 0.0 | 2.6 | 0.00 | 0.02 | 0.00 | 42 | 1008.0 |
| 20260902111805 | 86 | 169 | 0.9 | 7.0 | 0.00 | 0.02 | 0.00 | 42 | 1008.0 |
| 20260902110805 | 86 | 142 | 0.0 | 3.5 | 0.00 | 0.02 | 0.00 | 43 | 1008.3 |
| 20260902105806 | 86 | 290 | 1.7 | 2.6 | 0.00 | 0.02 | 0.00 | 44 | 1008.2 |
| 20260902104805 | 85 | 276 | 0.0 | 4.3 | 0.00 | 0.02 | 0.00 | 45 | 1008.2 |
| 20260902103805 | 85 | 240 | 0.0 | 1.7 | 0.00 | 0.02 | 0.00 | 45 | 1008.5 |
| 20260902102805 | 84 | 23 | 1.7 | 3.5 | 0.00 | 0.02 | 0.00 | 45 | 1008.5 |
| 20260902101805 | 84 | 25 | 2.6 | 3.5 | 0.00 | 0.02 | 0.00 | 46 | 1008.4 |
| 20260902100805 | 84 | 290 | 0.0 | 5.2 | 0.00 | 0.02 | 0.00 | 46 | 1008.8 |
| 20260902095805 | 83 | 353 | 1.7 | 8.7 | 0.00 | 0.02 | 0.00 | 48 | 1008.6 |
| 20260902094805 | 83 | 96 | 1.7 | 6.1 | 0.00 | 0.02 | 0.00 | 49 | 1008.8 |
| 20260902093805 | 82 | 74 | 1.7 | 4.3 | 0.00 | 0.02 | 0.00 | 49 | 1008.8 |
| 20260902092805 | 82 | 82 | 0.0 | 7.8 | 0.00 | 0.02 | 0.00 | 49 | 1008.7 |
| 20260902091805 | 81 | 89 | 0.0 | 6.1 | 0.00 | 0.02 | 0.00 | 50 | 1009.0 |
| 20260902090805 | 81 | 89 | 0.0 | 3.5 | 0.00 | 0.02 | 0.00 | 51 | 1009.0 |
| 20260902085805 | 80 | 15 | 1.7 | 8.7 | 0.00 | 0.02 | 0.00 | 52 | 1009.0 |
| 20260902084805 | 81 | 321 | 1.7 | 5.2 | 0.00 | 0.02 | 0.00 | 52 | 1008.9 |
| 20260902083805 | 80 | 2 | 3.5 | 9.6 | 0.00 | 0.02 | 0.00 | 53 | 1009.0 |
| 20260902082805 | 80 | 36 | 2.6 | 7.0 | 0.00 | 0.02 | 0.00 | 53 | 1009.2 |
| 20260902081805 | 79 | 111 | 2.6 | 3.5 | 0.00 | 0.02 | 0.00 | 54 | 1009.2 |
| 20260902075805 | 78 | 25 | 3.5 | 9.6 | 0.00 | 0.02 | 0.00 | 57 | 1009.1 |
| 20260902074805 | 78 | 88 | 2.6 | 5.2 | 0.00 | 0.02 | 0.00 | 57 | 1009.2 |
| 20260902073805 | 76 | 101 | 2.6 | 9.6 | 0.00 | 0.02 | 0.00 | 59 | 1009.2 |
| 20260902072805 | 76 | 57 | 9.6 | 9.6 | 0.00 | 0.02 | 0.00 | 60 | 1008.8 |
| 20260902071805 | 75 | 75 | 2.6 | 7.8 | 0.00 | 0.02 | 0.00 | 63 | 1009.0 |
| 20260902070805 | 75 | 32 | 2.6 | 5.2 | 0.00 | 0.02 | 0.00 | 62 | 1009.1 |
| 20260902065805 | 75 | 75 | 1.7 | 7.0 | 0.00 | 0.02 | 0.00 | 63 | 1009.1 |
| 20260902064805 | 74 | 7 | 2.6 | 5.2 | 0.00 | 0.02 | 0.00 | 65 | 1009.0 |
| 20260902063805 | 74 | 73 | 2.6 | 4.3 | 0.00 | 0.02 | 0.00 | 67 | 1009.1 |
| 20260902061805 | 72 | 67 | 5.2 | 5.2 | 0.00 | 0.02 | 0.00 | 69 | 1008.8 |
| 20260902060805 | 72 | 73 | 4.3 | 4.3 | 0.00 | 0.02 | 0.00 | 70 | 1008.8 |
| 20260902055805 | 72 | 89 | 1.7 | 4.3 | 0.00 | 0.02 | 0.00 | 70 | 1008.9 |
| 20260902054805 | 72 | 92 | 1.7 | 3.5 | 0.00 | 0.02 | 0.00 | 71 | 1008.8 |
| 20260902053805 | 71 | 165 | 0.9 | 5.2 | 0.00 | 0.02 | 0.00 | 73 | 1008.9 |
| 20260902052805 | 69 | 85 | 1.7 | 3.5 | 0.00 | 0.02 | 0.00 | 76 | 1009.0 |
| 20260902051805 | 69 | 89 | 1.7 | 4.3 | 0.00 | 0.02 | 0.00 | 76 | 1009.1 |
| 20260902050805 | 69 | 82 | 1.7 | 6.1 | 0.00 | 0.02 | 0.00 | 77 | 1008.9 |
| 20260902045805 | 69 | 51 | 3.5 | 6.1 | 0.00 | 0.02 | 0.00 | 76 | 1008.7 |
| 20260902044805 | 69 | 82 | 1.7 | 5.2 | 0.00 | 0.02 | 0.00 | 76 | 1008.7 |
| 20260902043805 | 69 | 32 | 3.5 | 5.2 | 0.00 | 0.02 | 0.00 | 76 | 1008.7 |
| 20260902042805 | 69 | 80 | 1.7 | 5.2 | 0.00 | 0.02 | 0.00 | 77 | 1008.5 |
| 20260902041805 | 69 | 86 | 2.6 | 5.2 | 0.00 | 0.02 | 0.00 | 77 | 1008.6 |
| 20260902040805 | 69 | 48 | 3.5 | 4.3 | 0.00 | 0.02 | 0.00 | 76 | 1008.6 |
| 20260902035805 | 69 | 61 | 1.7 | 4.3 | 0.00 | 0.01 | 0.00 | 76 | 1008.7 |
| 20260902034805 | 69 | 61 | 0.9 | 2.6 | 0.01 | 0.01 | 0.00 | 76 | 1008.6 |
| 20260902033805 | 69 | 74 | 1.7 | 4.3 | 0.01 | 0.01 | 0.00 | 77 | 1008.4 |
| 20260902032805 | 69 | 24 | 2.6 | 4.3 | 0.01 | 0.01 | 0.00 | 77 | 1008.3 |
| 20260902031805 | 69 | 62 | 3.5 | 5.2 | 0.01 | 0.01 | 0.00 | 76 | 1008.2 |
| 20260902030805 | 69 | 97 | 1.7 | 5.2 | 0.01 | 0.01 | 0.00 | 76 | 1008.0 |
| 20260902025805 | 69 | 63 | 3.5 | 4.3 | 0.00 | 0.00 | 0.00 | 77 | 1008.1 |
| 20260902024805 | 70 | 69 | 1.7 | 3.5 | 0.00 | 0.00 | 0.00 | 73 | 1008.6 |
| 20260902023805 | 70 | 67 | 1.7 | 3.5 | 0.00 | 0.00 | 0.00 | 72 | 1008.3 |
| 20260902022805 | 70 | 47 | 3.5 | 6.1 | 0.00 | 0.00 | 0.00 | 71 | 1008.2 |
| 20260902021805 | 70 | 45 | 2.6 | 4.3 | 0.00 | 0.00 | 0.00 | 71 | 1008.1 |
| 20260902020805 | 70 | 233 | 0.9 | 5.2 | 0.00 | 0.00 | 0.00 | 71 | 1007.9 |
| 20260902015805 | 70 | 62 | 2.6 | 3.5 | 0.00 | 0.00 | 0.00 | 71 | 1007.8 |
| 20260902014805 | 70 | 85 | 1.7 | 6.1 | 0.00 | 0.00 | 0.00 | 72 | 1007.7 |
| 20260902013805 | 70 | 11 | 1.7 | 4.3 | 0.00 | 0.00 | 0.00 | 72 | 1007.7 |
| 20260902012805 | 70 | 13 | 4.3 | 4.3 | 0.00 | 0.00 | 0.00 | 71 | 1007.6 |
| 20260902011805 | 70 | 23 | 2.6 | 6.1 | 0.00 | 0.00 | 0.00 | 71 | 1007.7 |
| 20260902010805 | 71 | 14 | 1.7 | 6.1 | 0.00 | 0.00 | 0.00 | 70 | 1007.9 |
| 20260902010716 | 71 | 17 | 2.6 | 6.1 | 0.00 | 0.00 | 0.00 | 70 | 1007.8 |
| 20260902005716 | 71 | 49 | 3.5 | 6.1 | 0.00 | 0.00 | 0.00 | 70 | 1008.0 |
| 20260902004716 | 71 | 28 | 1.7 | 3.5 | 0.00 | 0.00 | 0.00 | 69 | 1008.0 |
| 20260902003716 | 71 | 43 | 2.6 | 6.1 | 0.00 | 0.00 | 0.00 | 69 | 1007.8 |
| 20260902002716 | 71 | 19 | 1.7 | 6.1 | 0.00 | 0.00 | 0.00 | 69 | 1007.7 |
| 20260902001716 | 71 | 47 | 2.6 | 5.2 | 0.00 | 0.00 | 0.00 | 68 | 1007.7 |
| 20260902000716 | 72 | 179 | 2.6 | 4.3 | 0.00 | 0.00 | 0.00 | 68 | 1007.7 |
| 20260901235716 | 72 | 54 | 1.7 | 3.5 | 0.00 | 0.00 | 0.00 | 68 | 1007.5 |